Miscellaneous Local Product
Issued by NWS North Platte, NE

Home | Current Version | Previous Version | Text Only | Print | Product List | Glossary On
Versions: 1 2 3 4 5 6 7 8 9 10 11 12 13 14 15 16 17 18 19 20 21 22 23 24 25 26 27 28 29 30 31 32 33 34 35 36 37 38 39 40 41 42 43 44 45 46 47 48 49 50
000
AXUS43 KLBF 271310
MISLBF


WESTERN AND NORTH CENTRAL NEBRASKA HOURLY WEATHER ROUNDUP
NATIONAL WEATHER SERVICE NORTH PLATTE NE
800 AM CDT THU APR 27 2017

NOTE: "FAIR" INDICATES FEW OR NO CLOUDS BELOW 12,000 FEET WITH NO
SIGNIFICANT WEATHER AND/OR OBSTRUCTIONS TO VISIBILITY.

NOTE: STATIONS NOT REPORTING VARIABLES SUCH AS SKY/WEATHER OR
PRESSURE ARE PROVIDED BY RAWS AND APRS NETWORKS AND ARE NOT UNDER
NATIONAL WEATHER SERVICE QUALITY CONTROL.

...OBSERVATIONS IN AND NEAR THE EASTERN PANHANDLE OF NEBRASKA...

CITY           SKY/WX    TMP DP  RH WIND       PRES   REMARKS
PINE RIDGE     SUNNY     31  28  89 E7        29.63S WCI  24
CHADRON        CLOUDY    32  29  88 NE7       29.62R WCI  26
ALLIANCE       SUNNY     32  29  88 SE12      29.59S WCI  23
SIDNEY         MOSUNNY   36  34  92 SE7       29.58S WCI  30
$$

...OBSERVATIONS IN NORTHERN NEBRASKA AND FAR SOUTHERN SOUTH DAKOTA...

CITY           SKY/WX    TMP DP  RH WIND       PRES   REMARKS
WINNER         FOG       25  23  92 CALM      29.70R VSB 1/4
VALENTINE      SUNNY     28  23  81 SW6       29.68R WCI  22
THEDFORD       PTSUNNY   33  32  96 CALM      29.68R
AINSWORTH      SUNNY     30  29  94 W7        29.68R WCI  23
O`NEILL        MOSUNNY   29  26  89 N6        29.70R WCI  23
ORD            SUNNY     32  27  81 N5        29.68R WCI  27
BROKEN BOW     PTSUNNY   33  28  81 CALM      29.68R
VALENTINE NWR    N/A     27  25  92 CALM        N/A
HALSEY           N/A     28  26  91 CALM        N/A
BUTTE            N/A     28  26  94 N8          N/A  WCI  20
CHAMBERS         N/A     27  25  90 CALM        N/A
EWING            N/A     30  28  92 N7          N/A  WCI  23
$$

...OBSERVATIONS IN SOUTHWEST NEBRASKA AND FAR NORTHEAST COLORADO...

CITY           SKY/WX    TMP DP  RH WIND       PRES   REMARKS
HOLYOKE        FAIR      39  34  81 E6        29.61S WCI  35
IMPERIAL       CLOUDY    36  30  79 SE12      29.63R WCI  28
OGALLALA       CLOUDY    36  31  84 E9        29.64S WCI  29
NORTH PLATTE   CLOUDY    38  33  82 E3        29.67S
MCCOOK         CLOUDY    34  31  88 E7        29.67F WCI  28
LEXINGTON      SUNNY     30  28  92 CALM      29.70S
STAPLETON        N/A     28  26  92 CALM        N/A
GOTHENBURG       N/A     34  29  82 CALM        N/A
CALLAWAY         N/A     28  27  94 CALM        N/A
$$

...OBSERVATIONS IN CENTRAL LINCOLN COUNTY AREA...

CITY           SKY/WX    TMP DP  RH WIND       PRES   REMARKS
N.P. AIRPORT   CLOUDY    38  33  82 E3        29.67S
N.P. DOWNTOWN    N/A     38  31  74 CALM        N/A
N.P. SOUTHEAST   N/A     36  32  84 CALM        N/A
N.P. HILLCREST   N/A     36  30  80 CALM        N/A
$$

...SOME OBSERVATIONS FROM AROUND THE REGION...

CITY           SKY/WX    TMP DP  RH WIND       PRES   REMARKS
DENVER         CLOUDY    40  34  79 W13       29.57R WCI  32
LIMON          CLOUDY    37  36  96 CALM      29.59R
ASPEN          SNOW      32  32 100 CALM      29.65  VSB 1/2
LARAMIE        LGT SNOW  32  32 100 SW5       29.57S VSB 3/4 WCI  27
CASPER         CLOUDY    40  36  86 S10       29.50F WCI  33
CHEYENNE       CLOUDY    39  34  82 CALM      29.57F
SCOTTSBLUFF    SUNNY     38  35  89 E12       29.57S WCI  30
GRAND ISLAND   SUNNY     32  29  88 W8        29.70S WCI  25
OMAHA          CLOUDY    37  28  70 NW12      29.70R WCI  29
SIOUX FALLS    CLOUDY    31  27  85 N13       29.66R WCI  21
PIERRE         CLOUDY    32  27  81 N9        29.70S WCI  24
RAPID CITY     SUNNY     30  26  85 CALM      29.65R
BISMARCK       CLOUDY    32  26  78 NE6       29.76R WCI  26
KANSAS CITY    PTSUNNY   43  33  68 W8        29.72R
HILL CITY      MOSUNNY   34  32  92 NE3       29.70S
WICHITA        MOSUNNY   40  38  93 CALM      29.78R
DODGE CITY     PTSUNNY   44  37  76 SE5       29.67F
OKLAHOMA CITY  PTSUNNY   47  44  90 CALM      29.72F
DALLAS         CLOUDY    54  50  86 SW10      29.80R
AMARILLO       CLOUDY    49  36  61 S16       29.68S
$$




USA.gov is the U.S. government's official web portal to all federal, state and local government web resources and services.